• en France
  • Liste des pays
  • À 7 jours
  • Température de l'eau
  • Carte satellitaire
  • Carte météo
  • Widgets météo
  • user-avatar
    Se connecter

    Météo par heure à Szekszárd

    Ce jour, 21 Juillet, Samedi

    Heure Température Précipitation Vent Pression Humidité
    00:00 +22°C° 0 mm 1 m/s 751 mmHg 82%
    01:00 +21°C° 0 mm 1 m/s 751 mmHg 84%
    02:00 +21°C° 0 mm 1 m/s 751 mmHg 85%
    03:00 +19°C° 0 mm 0 m/s 751 mmHg 86%
    04:00 +19°C° 0 mm 0 m/s 751 mmHg 86%
    05:00 +22°C° 0 mm 1 m/s 751 mmHg 80%
    06:00 +24°C° 0 mm 1 m/s 751 mmHg 74%
    07:00 +25°C° 0 mm 1 m/s 751 mmHg 67%
    08:00 +27°C° 0 mm 1 m/s 751 mmHg 61%
    09:00 +29°C° 0 mm 2 m/s 751 mmHg 54%
    10:00 +30°C° 0 mm 2 m/s 751 mmHg 48%
    11:00 +31°C° 0 mm 2 m/s 750 mmHg 44%
    12:00 +32°C° 0 mm 2 m/s 750 mmHg 41%
    13:00 +34°C° 0 mm 2 m/s 750 mmHg 37%
    14:00 +34°C° 0 mm 2 m/s 749 mmHg 39%
    15:00 +34°C° 0 mm 2 m/s 749 mmHg 40%
    16:00 +32°C° 0 mm 2 m/s 749 mmHg 41%
    17:00 +31°C° 0 mm 2 m/s 749 mmHg 45%
    18:00 +30°C° 0 mm 2 m/s 748 mmHg 48%
    19:00 +29°C° 0 mm 2 m/s 748 mmHg 52%
    20:00 +27°C° 0,7 mm 2 m/s 748 mmHg 57%
    21:00 +26°C° 0,7 mm 3 m/s 749 mmHg 63%
    22:00 +25°C° 0,7 mm 3 m/s 749 mmHg 69%
    23:00 +24°C° 0,9 mm 3 m/s 749 mmHg 73%

    Demain, 22 Juillet, Dimanche

    Heure Température Précipitation Vent Pression Humidité
    00:00 +23°C° 0,9 mm 2 m/s 749 mmHg 77%
    01:00 +23°C° 0,9 mm 2 m/s 749 mmHg 82%
    02:00 +21°C° 0,2 mm 2 m/s 749 mmHg 82%
    03:00 +21°C° 0,2 mm 2 m/s 749 mmHg 82%
    04:00 +21°C° 0,2 mm 2 m/s 749 mmHg 82%
    05:00 +23°C° 0 mm 2 m/s 749 mmHg 79%
    06:00 +24°C° 0 mm 2 m/s 749 mmHg 76%
    07:00 +25°C° 0 mm 2 m/s 749 mmHg 73%
    08:00 +26°C° 0 mm 2 m/s 749 mmHg 65%
    09:00 +28°C° 0 mm 3 m/s 749 mmHg 57%
    10:00 +30°C° 0 mm 3 m/s 749 mmHg 50%
    11:00 +31°C° 0 mm 3 m/s 748 mmHg 46%
    12:00 +33°C° 0 mm 3 m/s 748 mmHg 42%
    13:00 +34°C° 0 mm 3 m/s 747 mmHg 39%
    14:00 +34°C° 0 mm 3 m/s 747 mmHg 39%
    15:00 +34°C° 0 mm 3 m/s 747 mmHg 39%
    16:00 +34°C° 0 mm 3 m/s 747 mmHg 39%
    17:00 +31°C° 0 mm 3 m/s 747 mmHg 45%
    18:00 +30°C° 0 mm 2 m/s 747 mmHg 50%
    19:00 +28°C° 0 mm 2 m/s 747 mmHg 55%
    20:00 +27°C° 0 mm 2 m/s 747 mmHg 60%
    21:00 +25°C° 0 mm 3 m/s 747 mmHg 66%
    22:00 +24°C° 0 mm 3 m/s 747 mmHg 71%
    23:00 +23°C° 0,3 mm 2 m/s 748 mmHg 76%

    Après-demain, 23 Juillet, Lundi

    Heure Température Précipitation Vent Pression Humidité
    00:00 +21°C° 0,3 mm 2 m/s 748 mmHg 81%
    01:00 +21°C° 0,3 mm 1 m/s 748 mmHg 86%
    02:00 +21°C° 0,1 mm 1 m/s 748 mmHg 87%
    03:00 +20°C° 0,1 mm 2 m/s 747 mmHg 88%
    04:00 +20°C° 0,1 mm 2 m/s 747 mmHg 89%
    05:00 +21°C° 0 mm 3 m/s 747 mmHg 85%
    06:00 +21°C° 0 mm 3 m/s 747 mmHg 82%
    07:00 +22°C° 0 mm 3 m/s 747 mmHg 79%
    08:00 +25°C° 0,3 mm 3 m/s 747 mmHg 72%
    09:00 +27°C° 0,3 mm 3 m/s 747 mmHg 65%
    10:00 +28°C° 0,3 mm 3 m/s 747 mmHg 58%
    11:00 +29°C° 0,3 mm 3 m/s 747 mmHg 55%
    12:00 +30°C° 0,3 mm 3 m/s 747 mmHg 53%
    13:00 +31°C° 0,3 mm 3 m/s 747 mmHg 50%
    14:00 +30°C° 1 mm 4 m/s 747 mmHg 54%
    15:00 +29°C° 1 mm 4 m/s 746 mmHg 59%
    16:00 +28°C° 1 mm 4 m/s 746 mmHg 63%
    17:00 +27°C° 0,6 mm 4 m/s 746 mmHg 68%
    18:00 +26°C° 0,6 mm 4 m/s 747 mmHg 72%
    19:00 +25°C° 0,6 mm 3 m/s 747 mmHg 77%
    20:00 +24°C° 0,4 mm 3 m/s 747 mmHg 80%
    21:00 +22°C° 0,4 mm 3 m/s 747 mmHg 83%
    22:00 +22°C° 0,4 mm 3 m/s 747 mmHg 86%
    23:00 +21°C° 0,2 mm 3 m/s 748 mmHg 87%

    24 Juillet, Mardi

    Heure Température Précipitation Vent Pression Humidité
    00:00 +21°C° 0,2 mm 3 m/s 748 mmHg 87%
    01:00 +21°C° 0,2 mm 3 m/s 748 mmHg 88%
    02:00 +20°C° 0 mm 3 m/s 748 mmHg 88%
    03:00 +20°C° 0 mm 3 m/s 748 mmHg 88%
    04:00 +19°C° 0 mm 3 m/s 748 mmHg 89%
    05:00 +20°C° 0 mm 4 m/s 749 mmHg 84%
    06:00 +21°C° 0 mm 4 m/s 749 mmHg 79%
    07:00 +23°C° 0 mm 5 m/s 749 mmHg 75%
    08:00 +26°C° 0 mm 5 m/s 749 mmHg 66%
    09:00 +28°C° 0 mm 5 m/s 749 mmHg 58%
    10:00 +30°C° 0 mm 5 m/s 750 mmHg 49%
    11:00 +30°C° 0 mm 5 m/s 749 mmHg 46%
    12:00 +32°C° 0 mm 5 m/s 749 mmHg 43%
    13:00 +33°C° 0 mm 5 m/s 748 mmHg 41%
    14:00 +33°C° 0 mm 4 m/s 748 mmHg 40%
    15:00 +33°C° 0 mm 4 m/s 748 mmHg 40%
    16:00 +33°C° 0 mm 4 m/s 748 mmHg 40%
    17:00 +30°C° 0 mm 3 m/s 748 mmHg 45%
    18:00 +29°C° 0 mm 3 m/s 748 mmHg 50%
    19:00 +27°C° 0 mm 2 m/s 748 mmHg 56%
    20:00 +26°C° 0 mm 2 m/s 748 mmHg 60%
    21:00 +25°C° 0 mm 2 m/s 749 mmHg 63%
    22:00 +24°C° 0 mm 2 m/s 749 mmHg 67%
    23:00 +23°C° 0 mm 2 m/s 749 mmHg 70%

    25 Juillet, Mercredi

    Heure Température Précipitation Vent Pression Humidité
    00:00 +21°C° 0 mm 2 m/s 749 mmHg 73%
    01:00 +21°C° 0 mm 2 m/s 749 mmHg 77%
    02:00 +20°C° 0 mm 2 m/s 749 mmHg 80%
    03:00 +20°C° 0 mm 2 m/s 749 mmHg 83%
    04:00 +19°C° 0 mm 2 m/s 749 mmHg 85%
    05:00 +20°C° 0,1 mm 2 m/s 749 mmHg 81%
    06:00 +23°C° 0,1 mm 2 m/s 750 mmHg 76%
    07:00 +24°C° 0,1 mm 2 m/s 750 mmHg 71%
    08:00 +25°C° 0 mm 2 m/s 750 mmHg 65%
    09:00 +27°C° 0 mm 2 m/s 750 mmHg 58%
    10:00 +29°C° 0 mm 2 m/s 750 mmHg 52%
    11:00 +29°C° 0,1 mm 2 m/s 749 mmHg 49%
    12:00 +30°C° 0,1 mm 2 m/s 749 mmHg 46%
    13:00 +31°C° 0,1 mm 2 m/s 749 mmHg 44%
    14:00 +31°C° 0 mm 2 m/s 749 mmHg 44%
    15:00 +30°C° 0 mm 2 m/s 749 mmHg 45%
    16:00 +30°C° 0 mm 2 m/s 749 mmHg 45%
    17:00 +29°C° 0 mm 2 m/s 749 mmHg 50%
    18:00 +28°C° 0 mm 2 m/s 749 mmHg 54%
    19:00 +27°C° 0 mm 2 m/s 749 mmHg 59%
    20:00 +25°C° 0,6 mm 2 m/s 749 mmHg 64%
    21:00 +24°C° 0,6 mm 1 m/s 749 mmHg 70%
    22:00 +23°C° 0,6 mm 1 m/s 749 mmHg 75%
    23:00 +22°C° 0,2 mm 1 m/s 749 mmHg 77%

    26 Juillet, Jeudi

    Heure Température Précipitation Vent Pression Humidité
    00:00 +21°C° 0,2 mm 2 m/s 749 mmHg 79%
    01:00 +20°C° 0,2 mm 2 m/s 750 mmHg 81%
    02:00 +20°C° 0 mm 2 m/s 750 mmHg 83%
    03:00 +19°C° 0 mm 2 m/s 750 mmHg 85%
    04:00 +19°C° 0 mm 2 m/s 750 mmHg 87%
    05:00 +20°C° 0 mm 2 m/s 750 mmHg 83%
    06:00 +21°C° 0 mm 3 m/s 750 mmHg 80%
    07:00 +24°C° 0 mm 3 m/s 750 mmHg 76%
    08:00 +26°C° 0,1 mm 3 m/s 751 mmHg 68%
    09:00 +27°C° 0,1 mm 3 m/s 751 mmHg 61%
    10:00 +29°C° 0,1 mm 3 m/s 751 mmHg 53%
    11:00 +30°C° 0 mm 3 m/s 750 mmHg 49%
    12:00 +31°C° 0 mm 2 m/s 750 mmHg 44%
    13:00 +32°C° 0 mm 2 m/s 750 mmHg 40%
    14:00 +32°C° 0 mm 2 m/s 750 mmHg 41%
    15:00 +32°C° 0 mm 2 m/s 750 mmHg 41%
    16:00 +32°C° 0 mm 2 m/s 750 mmHg 42%
    17:00 +31°C° 0 mm 2 m/s 750 mmHg 47%
    18:00 +29°C° 0 mm 2 m/s 750 mmHg 51%
    19:00 +28°C° 0 mm 2 m/s 750 mmHg 56%
    20:00 +27°C° 0,5 mm 2 m/s 750 mmHg 62%
    21:00 +25°C° 0,5 mm 2 m/s 750 mmHg 68%
    22:00 +24°C° 0,5 mm 2 m/s 750 mmHg 74%
    23:00 +24°C° 0,2 mm 2 m/s 751 mmHg 77%
    Voir plus